When you browse on this site, cookies collect data to enhance your experience and personalize the content and advertising you see.
Visit our Privacy Policy to learn more. By continuing to use the site, you agree to this use of cookies and data.
  • En España
  • Lista de países
  • Para 7 días
  • Temperatura del agua
  • El tiempo en el mapa
  • Informadores
  • user-avatar
    Iniciar sesión

    Tiempo cada hora Eisenstadt

    Hoy, 2 Abril, Jueves

    Tiempo Temperatura Precipitaciones Viento Presión Humedad
    00:00 -2°C° 0 mm 3 mps 722 mmHg 54%
    01:00 -2°C° 0 mm 3 mps 722 mmHg 55%
    02:00 -2°C° 0 mm 2 mps 722 mmHg 56%
    03:00 -3°C° 0 mm 2 mps 721 mmHg 56%
    04:00 -3°C° 0 mm 2 mps 721 mmHg 57%
    05:00 -2°C° 0 mm 2 mps 721 mmHg 54%
    06:00 -1°C° 0 mm 2 mps 721 mmHg 50%
    07:00 +1°C° 0 mm 2 mps 721 mmHg 47%
    08:00 +3°C° 0 mm 2 mps 721 mmHg 43%
    09:00 +4°C° 0 mm 3 mps 721 mmHg 38%
    10:00 +7°C° 0 mm 3 mps 721 mmHg 34%
    11:00 +8°C° 0 mm 3 mps 720 mmHg 33%
    12:00 +9°C° 0 mm 3 mps 720 mmHg 33%
    13:00 +10°C° 0 mm 4 mps 720 mmHg 32%
    14:00 +10°C° 0 mm 4 mps 719 mmHg 33%
    15:00 +8°C° 0 mm 4 mps 719 mmHg 35%
    16:00 +8°C° 0 mm 4 mps 718 mmHg 36%
    17:00 +7°C° 0 mm 3 mps 718 mmHg 43%
    18:00 +4°C° 0 mm 3 mps 718 mmHg 50%
    19:00 +3°C° 0 mm 2 mps 718 mmHg 57%
    20:00 +3°C° 0 mm 2 mps 718 mmHg 59%
    21:00 +2°C° 0 mm 2 mps 718 mmHg 61%
    22:00 +2°C° 0 mm 2 mps 718 mmHg 63%
    23:00 +2°C° 0 mm 2 mps 718 mmHg 63%

    Mañana, 3 Abril, Viernes

    Tiempo Temperatura Precipitaciones Viento Presión Humedad
    00:00 +1°C° 0 mm 2 mps 718 mmHg 63%
    01:00 +1°C° 0 mm 2 mps 718 mmHg 63%
    02:00 +1°C° 0 mm 2 mps 718 mmHg 63%
    03:00 +2°C° 0 mm 1 mps 718 mmHg 62%
    04:00 +2°C° 0 mm 1 mps 718 mmHg 62%
    05:00 +3°C° 0 mm 1 mps 718 mmHg 60%
    06:00 +4°C° 0 mm 1 mps 719 mmHg 59%
    07:00 +5°C° 0 mm 1 mps 719 mmHg 58%
    08:00 +6°C° 0 mm 2 mps 719 mmHg 53%
    09:00 +9°C° 0 mm 2 mps 720 mmHg 49%
    10:00 +11°C° 0 mm 3 mps 720 mmHg 44%
    11:00 +11°C° 0 mm 3 mps 720 mmHg 43%
    12:00 +12°C° 0 mm 3 mps 720 mmHg 42%
    13:00 +12°C° 0 mm 3 mps 720 mmHg 42%
    14:00 +13°C° 0 mm 2 mps 720 mmHg 44%
    15:00 +13°C° 0 mm 2 mps 720 mmHg 46%
    16:00 +12°C° 0 mm 2 mps 720 mmHg 48%
    17:00 +10°C° 0 mm 2 mps 720 mmHg 55%
    18:00 +10°C° 0 mm 1 mps 721 mmHg 62%
    19:00 +8°C° 0 mm 1 mps 721 mmHg 68%
    20:00 +7°C° 0 mm 1 mps 722 mmHg 70%
    21:00 +7°C° 0 mm 1 mps 722 mmHg 72%
    22:00 +5°C° 0 mm 2 mps 723 mmHg 74%
    23:00 +4°C° 0 mm 2 mps 723 mmHg 75%

    Pasado mañana, 4 Abril, Sábado

    Tiempo Temperatura Precipitaciones Viento Presión Humedad
    00:00 +4°C° 0 mm 2 mps 724 mmHg 76%
    01:00 +4°C° 0 mm 2 mps 724 mmHg 77%
    02:00 +3°C° 0 mm 2 mps 724 mmHg 79%
    03:00 +3°C° 0 mm 2 mps 724 mmHg 81%
    04:00 +4°C° 0 mm 1 mps 724 mmHg 84%
    05:00 +4°C° 0 mm 1 mps 725 mmHg 82%
    06:00 +5°C° 0 mm 1 mps 726 mmHg 80%
    07:00 +6°C° 0 mm 1 mps 726 mmHg 78%
    08:00 +6°C° 0 mm 2 mps 727 mmHg 72%
    09:00 +8°C° 0 mm 2 mps 727 mmHg 67%
    10:00 +9°C° 0 mm 2 mps 727 mmHg 61%
    11:00 +10°C° 0 mm 2 mps 727 mmHg 59%
    12:00 +10°C° 0 mm 3 mps 727 mmHg 57%
    13:00 +11°C° 0 mm 3 mps 727 mmHg 54%
    14:00 +11°C° 0 mm 3 mps 727 mmHg 54%
    15:00 +11°C° 0 mm 3 mps 727 mmHg 54%
    16:00 +11°C° 0 mm 3 mps 727 mmHg 54%
    17:00 +9°C° 0 mm 3 mps 727 mmHg 60%
    18:00 +7°C° 0 mm 2 mps 728 mmHg 66%
    19:00 +6°C° 0 mm 2 mps 728 mmHg 73%
    20:00 +5°C° 0 mm 2 mps 728 mmHg 73%
    21:00 +5°C° 0 mm 2 mps 729 mmHg 73%
    22:00 +4°C° 0 mm 2 mps 730 mmHg 74%
    23:00 +5°C° 0 mm 1 mps 730 mmHg 74%

    5 Abril, Domingo

    Tiempo Temperatura Precipitaciones Viento Presión Humedad
    00:00 +4°C° 0 mm 1 mps 730 mmHg 73%
    01:00 +4°C° 0 mm 1 mps 730 mmHg 73%
    02:00 +4°C° 0 mm 1 mps 730 mmHg 73%
    03:00 +3°C° 0 mm 1 mps 730 mmHg 73%
    04:00 +2°C° 0 mm 0 mps 730 mmHg 74%
    05:00 +4°C° 0 mm 1 mps 731 mmHg 71%
    06:00 +5°C° 0 mm 1 mps 731 mmHg 68%
    07:00 +6°C° 0 mm 1 mps 731 mmHg 65%
    08:00 +7°C° 0 mm 1 mps 731 mmHg 58%
    09:00 +8°C° 0 mm 2 mps 731 mmHg 51%
    10:00 +10°C° 0 mm 2 mps 731 mmHg 45%
    11:00 +11°C° 0 mm 3 mps 731 mmHg 43%
    12:00 +12°C° 0 mm 3 mps 731 mmHg 41%
    13:00 +13°C° 0 mm 3 mps 731 mmHg 39%
    14:00 +13°C° 0 mm 3 mps 730 mmHg 39%
    15:00 +13°C° 0 mm 3 mps 730 mmHg 38%
    16:00 +13°C° 0 mm 3 mps 730 mmHg 38%
    17:00 +11°C° 0 mm 3 mps 730 mmHg 45%
    18:00 +9°C° 0 mm 2 mps 730 mmHg 52%
    19:00 +7°C° 0 mm 2 mps 730 mmHg 59%
    20:00 +6°C° 0 mm 2 mps 730 mmHg 63%
    21:00 +6°C° 0 mm 2 mps 731 mmHg 66%
    22:00 +5°C° 0 mm 2 mps 731 mmHg 70%
    23:00 +5°C° 0 mm 2 mps 731 mmHg 73%

    6 Abril, Lunes

    Tiempo Temperatura Precipitaciones Viento Presión Humedad
    00:00 +5°C° 0 mm 2 mps 731 mmHg 76%
    01:00 +5°C° 0 mm 2 mps 731 mmHg 78%
    02:00 +5°C° 0 mm 2 mps 731 mmHg 81%
    03:00 +4°C° 0 mm 2 mps 731 mmHg 83%
    04:00 +4°C° 0 mm 2 mps 731 mmHg 86%
    05:00 +4°C° 0 mm 3 mps 731 mmHg 82%
    06:00 +5°C° 0 mm 3 mps 731 mmHg 79%
    07:00 +5°C° 0 mm 3 mps 731 mmHg 76%
    08:00 +7°C° 0 mm 5 mps 732 mmHg 66%
    09:00 +8°C° 0 mm 6 mps 732 mmHg 57%
    10:00 +10°C° 0 mm 7 mps 732 mmHg 47%
    11:00 +11°C° 0 mm 7 mps 732 mmHg 44%
    12:00 +11°C° 0 mm 7 mps 732 mmHg 41%
    13:00 +12°C° 0 mm 7 mps 732 mmHg 37%
    14:00 +12°C° 0 mm 7 mps 732 mmHg 36%
    15:00 +12°C° 0 mm 7 mps 732 mmHg 35%
    16:00 +13°C° 0 mm 6 mps 731 mmHg 33%
    17:00 +10°C° 0 mm 5 mps 731 mmHg 38%
    18:00 +8°C° 0 mm 5 mps 732 mmHg 44%
    19:00 +6°C° 0 mm 4 mps 732 mmHg 49%
    20:00 +5°C° 0 mm 3 mps 732 mmHg 50%
    21:00 +5°C° 0 mm 3 mps 733 mmHg 51%
    22:00 +4°C° 0 mm 3 mps 733 mmHg 52%
    23:00 +3°C° 0 mm 3 mps 733 mmHg 53%

    7 Abril, Martes

    Tiempo Temperatura Precipitaciones Viento Presión Humedad
    00:00 +3°C° 0 mm 3 mps 733 mmHg 54%
    01:00 +3°C° 0 mm 2 mps 733 mmHg 55%
    02:00 +3°C° 0 mm 2 mps 733 mmHg 56%
    03:00 +3°C° 0 mm 2 mps 733 mmHg 57%
    04:00 +2°C° 0 mm 2 mps 734 mmHg 58%
    05:00 +3°C° 0 mm 2 mps 734 mmHg 56%
    06:00 +4°C° 0 mm 2 mps 734 mmHg 54%
    07:00 +5°C° 0 mm 2 mps 735 mmHg 52%
    08:00 +7°C° 0 mm 2 mps 735 mmHg 47%
    09:00 +9°C° 0 mm 3 mps 735 mmHg 41%
    10:00 +10°C° 0 mm 3 mps 735 mmHg 35%
    11:00 +11°C° 0 mm 3 mps 735 mmHg 33%
    12:00 +12°C° 0 mm 4 mps 735 mmHg 31%
    13:00 +13°C° 0 mm 4 mps 735 mmHg 29%
    14:00 +13°C° 0 mm 4 mps 734 mmHg 30%
    15:00 +13°C° 0 mm 4 mps 734 mmHg 31%
    16:00 +13°C° 0 mm 4 mps 734 mmHg 32%
    17:00 +11°C° 0 mm 3 mps 734 mmHg 39%
    18:00 +9°C° 0 mm 2 mps 733 mmHg 46%
    19:00 +7°C° 0 mm 2 mps 733 mmHg 52%
    20:00 +6°C° 0 mm 2 mps 734 mmHg 54%
    21:00 +6°C° 0 mm 2 mps 734 mmHg 56%
    22:00 +5°C° 0 mm 2 mps 734 mmHg 58%
    23:00 +5°C° 0 mm 2 mps 734 mmHg 58%
    Mostrar más